OKEAN-0
1 25860U 99039A 12252.94689974 .00000882 00000-0 14081-3 0 07385
2 25860 097.9460 213.9238 0001483 034.6010 325.5294 14.74292037706918
NOAA-16
1 26536U 00055A 12252.11201533 .00000344 00000-0 21014-3 0 08823
2 26536 099.0858 295.4854 0010233 206.3988 153.6696 14.12778020616747
NOAA-17
1 27453U 02032A 12252.18920900 .00000179 00000-0 94821-4 0 08285
2 27453 098.3314 275.0182 0010729 274.3074 085.6911 14.24478939530573
NOAA-18
1 28654U 05018A 12252.27510877 .00000154 00000-0 10983-3 0 03109
2 28654 099.0548 211.0920 0013532 283.7525 076.2147 14.11696133376281
NOAA-19
1 33591U 09005A 12252.30171983 .00000313 00000-0 19730-3 0 04994
2 33591 098.8683 191.0788 0014461 143.0753 217.1419 14.11383050184732
HUBBLE
1 20580U 90037B 12250.61945086 .00002970 00000-0 20448-3 0 00656
2 20580 028.4710 330.5555 0003584 202.3050 157.7335 15.02755706026992
ISS
1 25544U 98067A 12252.93488678 .00014780 00000-0 26097-3 0 02669
2 25544 051.6467 064.8635 0015615 050.3777 104.0148 15.50478392791032
CO-58
1 28895U 05043F 12252.17578731 .00000920 00000-0 19755-3 0 02719
2 28895 097.9023 114.7517 0016482 250.0885 109.8515 14.60734281365772
FALCON
1 30776U 07006E 12252.95071647 .00006667 00000-0 42513-3 0 04579
2 30776 035.4324 125.0030 0002218 354.1062 005.9629 15.08142591302902
MAST
1 31126U 07012K 12252.96062254 .00000620 00000-0 14845-3 0 05561
2 31126 097.8756 259.1699 0092895 209.0992 150.5011 14.54247404286444
CAPE1
1 31130U 07012P 12251.96414388 .00000938 00000-0 22304-3 0 05611
2 31130 097.8842 254.5713 0100168 225.9932 133.2998 14.53055244285792
COMPASS
1 32787U 08021E 12253.20917407 .00003448 00000-0 41640-3 0 4049
2 32787 097.7919 312.6640 0015960 141.7251 218.5107 14.84310326236271
AAUSAT2
1 32788U 08021F 12252.14896534 .00003685 00000-0 44104-3 0 03971
2 32788 097.7937 312.0577 0015256 143.2476 216.9808 14.84650420236147
DO-64
1 32789U 08021G 12252.17508551 .00005694 00000-0 65051-3 0 04139
2 32789 097.8053 314.4336 0015343 141.4796 218.7477 14.86348999236205
CO-66
1 32791U 08021J 12252.15420178 .00002810 00000-0 34579-3 0 03933
2 32791 097.7902 311.3047 0016608 145.6797 214.5489 14.83666698236042
RS-30
1 32953U 08025A 12253.39994680 .00000010 00000-0 00000 0 0 1271
2 32953 082.4973 242.7645 0019939 121.2721 239.0315 12.43027440195021
PHARMSAT
1 35002U 09028B 12226.86484473 .07728342 73476-5 57159-3 0 789
2 35002 040.4341 050.6671 0012079 300.9773 059.0492 16.39309245183554
METEOR-M
1 35865U 09049A 12253.24122791 .00000016 00000-0 27030-4 0 7621
2 35865 098.6459 305.9539 0002509 149.6211 210.5112 14.21868884154545
RS-38
1 35869U 09049E 12253.53120399 .00000078 00000-0 54603-4 0 7522
2 35869 098.6410 306.2192 0004563 157.9754 202.1621 14.22086176154607
JUGNU
1 37839U 11058B 12253.26230616 .00000620 00000-0 19019-3 0 2235
2 37839 019.9598 208.8995 0019382 069.5534 290.6953 14.12078899 47148
SRMSAT
1 37841U 11058D 12253.28976920 .00000264 00000-0 00000 0 0 2246
2 37841 019.9693 215.2568 0011436 032.6275 327.4850 14.10158961 47074
RAX-2
1 37853U 11061D 12252.93187707 .00010106 00000-0 79006-3 0 02917
2 37853 101.7041 331.2613 0244963 112.1407 250.5963 14.80693775046791
AUBIESAT
1 37854U 11061E 12252.93112172 .00010697 00000-0 81933-3 0 02885
2 37854 101.7100 331.6248 0246459 111.3745 251.3906 14.81145951046788
HRBE
1 37855U 11061F 12252.88620683 .00010268 00000-0 79303-3 0 2760
2 37855 101.7069 331.4841 0245935 111.5928 251.1644 14.80960681 46773
RS-39
1 38051U 11062C 12252.22436520 .00013620 00000-0 53981-3 0 06823
2 38051 051.6344 123.7797 0012193 339.6812 120.6919 15.25614967034647
E-STAR
1 38079U 12006C 12252.09384964 .00051276 00000-0 12575-2 0 04898
2 38079 069.4833 125.5091 0719411 143.0269 222.2707 14.20028568029338
GOLIAT
1 38085U 12006J 12253.06169139 .00049059 00000-0 11911-2 0 4617
2 38085 069.4813 123.8478 0725133 142.1967 223.2449 14.19022318 29458
HORYU-2
1 38340U 12025D 12253.36361911 .00001882 00000-0 32078-3 0 1366
2 38340 098.1803 193.3078 0014041 065.0160 295.2476 14.70155981 16843
RS-40
1 38736U 12041D 12252.07391090 .00000010 00000-0 00000-0 0 00471
2 38736 082.4822 331.0246 0018049 220.3799 139.5943 12.42646228005206
